Location: ????????
(60.4333°N, 46.4710°E)
Time: 18:35:47
(UTC+00:00)

SL-08 R/B - Pass Details

Date: 25 November 2020
Orbit: 673 x 740 km, 98.4° (Epoch: 16 January)

Event Time Altitude Azimuth Distance (km) Brightness Sun altitude
Exits shadow 13:46:57 - 17° (NNE) 3,015 6.2 -11.7°
Reaches altitude 10° 13:48:50 10° 15° (NNE) 2,261 5.6 -11.9°
Maximum altitude 13:53:46 65° 294° (WNW) 808 3.8 -12.4°
Drops below altitude 10° 13:58:35 10° 214° (SSW) 2,218 6.7 -13.0°
Sets 14:00:51 0° 211° (SSW) 3,125 7.5 -13.3°
